カタログに戻る

YAM-8

運用中通信SSO
NORAD 63254·PAYLOAD·🇺🇸 United States

打ち上げ Mar 15, 2025 から Vandenberg Space Force Base

Loading…

次のパス (今後24時間)

TLE

最新Source: Space-Track

元期: Sep 13, 2026, 15:39 UTC

1 63254U 25052AW  26256.65275078  .00003181  00000-0  20318-3 0  9995
2 63254  97.6826 158.5543 0002435 123.7458 236.4003 15.09385240 82628

AllMySatでYAM-8をリアルタイム追跡

Download on the App Store